Temperature
17 17 17 17 17 17 17 17 17 17 17 17 17 17 17 17 18 18 18 18 18 18 18 18 18 18 18 18 18 18 18 18 18 17 17 17 17 17 17 17 17 17 17
17 17 17 17 17 17 17 17 17 17 17 17 17 17 17 17 17 17 17 17 17 18 18 18 18 18 18 18 18 18 18 18 18 18 17 17 17 17 17 17 17 17 17
16 17 16 16 16 16 16 17 17 17 17 17 17 17 17 17 17 17 17 17 17 17 17 18 18 18 18 18 18 18 18 18 18 18 18 17 17 17 17 17 17 17 17
15 16 16 16 16 16 16 16 16 16 16 16 16 16 16 17 17 17 17 17 17 17 17 17 18 18 18 18 18 18 18 18 18 18 18 17 17 17 17 17 17 17 17
14 15 15 15 15 15 15 16 16 16 16 16 16 16 17 17 17 17 17 17 17 17 17 17 17 17 17 17 18 18 18 18 18 18 18 18 17 17 17 17 17 17 17
14 14 14 14 14 15 15 15 15 15 15 16 16 16 16 16 17 17 17 17 17 17 16 16 17 17 17 17 17 17 17 18 18 18 17 17 18 17 17 17 17 17 17
14 14 13 14 14 14 14 14 14 14 15 15 15 16 16 17 17 17 17 17 17 17 17 17 17 17 17 17 17 17 17 17 17 17 17 17 17 17 18 18 18 17 17
13 13 13 13 13 13 13 13 13 13 14 14 15 15 16 17 17 17 17 17 17 17 17 17 17 17 16 16 17 17 17 17 17 17 17 17 17 17 17 18 18 18 17
13 13 12 12 12 13 13 13 13 13 13 14 14 15 15 16 16 17 17 17 17 17 17 16 16 16 16 16 16 16 16 17 17 17 17 17 17 17 17 17 17 18 18
13 13 12 12 12 12 12 12 13 13 13 13 14 14 15 15 15 15 16 17 17 16 16 16 16 16 16 16 16 16 16 16 16 17 17 17 17 17 17 17 17 17 17
14 13 13 12 12 12 12 12 12 12 12 12 13 13 14 14 15 15 15 16 16 16 16 16 16 16 16 16 16 16 16 16 16 16 16 17 17 17 17 17 17 17 17
14 14 13 12 12 12 12 12 12 12 12 12 12 13 13 13 14 14 15 15 16 16 16 16 16 16 16 16 16 16 16 16 16 16 16 16 16 16 17 17 17 17 17
14 14 13 13 12 12 11 11 11 11 11 11 12 12 12 12 13 13 14 14 15 15 16 16 16 16 16 16 16 16 16 16 16 16 16 16 16 16 16 16 16 16 16
13 13 13 12 12 11 11 11 11 11 11 11 11 11 12 12 12 13 13 13 14 14 15 16 16 16 16 16 16 15 15 16 16 16 16 16 16 16 16 16 16 16 16
13 13 12 12 11 11 11 11 11 11 11 11 11 11 11 11 12 12 13 13 13 13 14 15 15 15 16 15 15 15 15 15 16 16 16 16 16 16 16 16 16 16 16
13 12 12 12 11 11 11 11 11 11 11 11 11 11 11 11 11 12 12 12 13 13 13 14 14 15 15 15 15 15 15 15 15 15 15 15 15 16 16 16 16 16 16
12 12 12 12 11 11 11 11 11 11 11 11 11 11 11 11 11 11 11 11 12 12 13 13 13 14 14 14 14 14 14 14 15 15 15 15 15 15 15 15 15 15 15
12 12 12 12 11 11 11 11 11 11 11 10 10 10 10 10 10 11 11 11 11 11 12 12 12 13 13 13 14 14 14 14 14 15 15 15 15 15 15 15 15 15 15
12 12 12 12 11 11 11 11 11 11 10 10 10 10 10 10 10 10 10 10 11 11 11 11 12 12 13 13 13 13 14 14 14 14 15 15 15 15 15 15 15 15 15
12 12 12 12 11 11 11 11 10 10 10 10 10 10 10 10 10 10 10 10 10 10 10 11 11 12 12 13 13 13 13 14 14 14 14 15 15 15 15 15 15 15 15
13 12 12 11 11 11 11 11 10 10 10 10 10 10 9 9 9 10 10 10 10 10 10 10 10 11 12 12 13 13 13 13 13 13 14 14 15 15 15 15 15 15 15
13 12 12 12 11 11 11 11 10 10 10 10 10 9 9 9 10 10 10 10 10 10 10 10 10 10 11 12 12 12 13 13 13 13 13 14 14 14 15 15 14 14 14
13 13 12 12 11 11 10 10 10 10 10 10 10 9 9 9 9 10 9 9 9 10 10 9 9 10 10 11 11 11 12 12 12 12 13 13 13 14 14 14 14 14 14
13 13 12 12 11 11 10 10 10 10 10 10 10 9 9 9 9 9 9 9 9 9 9 9 9 10 10 10 10 10 10 11 11 12 12 12 13 13 13 14 14 14 14
14 13 12 11 11 11 10 10 10 9 9 9 9 9 9 9 9 9 9 9 9 9 9 9 9 9 9 10 10 10 10 10 10 11 12 12 12 12 13 13 13 14 14
14 13 12 11 11 11 10 10 10 9 9 9 9 9 9 9 9 9 9 9 8 9 8 8 9 9 9 9 9 9 9 9 9 10 12 12 12 12 12 12 13 13 13
Wind_Speed
3 4 3 4 5 4 3 3 4 3 4 5 6 8 7 8 9 8 7 18 19 19 18 17 16 17 17 18 19 19 18 18 17 17 18 17 17 17 16 15 15 14 13
6 5 4 3 3 3 2 2 3 3 3 4 5 6 7 9 10 9 9 14 19 20 20 19 18 18 18 19 20 21 21 20 20 19 19 19 19 19 18 17 17 16 15
8 7 5 3 3 5 2 3 4 3 5 5 6 6 5 8 8 10 12 12 14 19 21 21 21 21 20 19 20 22 22 23 22 22 21 21 21 21 21 20 19 18 17
9 7 5 4 7 7 4 3 3 3 3 2 3 4 4 5 7 10 12 14 14 14 19 23 23 23 22 22 21 21 23 24 24 24 24 23 23 23 23 22 21 20 20
9 8 5 4 7 5 4 5 3 3 3 3 4 5 6 6 7 9 9 12 14 15 14 20 25 25 25 24 23 23 23 24 25 26 26 25 25 24 25 24 24 23 22
8 8 5 6 7 5 5 5 5 4 4 4 7 6 4 6 6 7 9 9 12 16 17 16 18 21 26 25 25 25 24 25 26 27 27 27 27 26 26 26 26 25 24
6 6 4 5 5 5 6 6 5 7 6 5 5 5 6 8 8 8 8 7 8 12 15 15 15 15 17 26 28 26 26 26 26 28 29 29 28 28 28 28 27 27 26
5 6 6 5 6 6 6 5 5 4 6 6 5 5 5 6 4 5 3 5 5 3 5 11 12 13 13 13 20 27 28 28 28 28 29 30 30 29 29 29 29 28 28
3 4 4 4 5 6 5 6 5 6 5 6 6 4 4 4 5 4 2 1 2 1 2 3 8 12 14 13 13 21 28 29 29 29 29 30 31 31 31 30 29 29 29
2 1 2 4 4 5 6 6 7 6 6 6 6 5 4 3 3 4 5 2 2 3 3 3 4 7 12 13 14 16 21 27 29 30 29 30 31 31 31 31 30 30 30
4 3 2 1 3 5 4 5 6 6 6 6 6 6 6 5 4 5 6 5 3 3 4 5 4 4 10 12 13 16 18 21 26 29 30 30 31 31 31 31 31 30 30
2 3 2 2 2 4 5 5 6 7 6 6 5 6 6 5 5 5 5 6 5 4 3 4 4 4 7 9 12 14 17 18 21 25 28 29 30 31 31 31 31 31 30
2 3 3 1 3 4 4 5 5 6 6 6 5 5 5 6 5 5 5 6 6 6 5 3 4 3 5 6 7 8 12 16 18 21 23 25 27 29 30 31 31 31 31
3 1 1 3 4 5 6 4 5 7 6 5 7 6 5 6 6 5 5 5 6 6 6 6 3 3 2 4 5 6 8 13 15 18 20 22 24 27 28 30 31 31 31
4 2 2 3 5 5 6 6 5 6 6 6 6 7 5 5 5 5 5 5 5 7 7 6 3 2 2 4 6 6 7 9 13 16 18 19 21 23 25 27 29 31 31
5 5 6 6 6 6 6 6 6 7 7 6 6 7 6 5 6 5 5 5 5 6 7 6 6 4 2 2 5 5 6 9 13 15 17 19 20 21 23 24 26 28 30
6 6 6 7 7 7 7 7 7 8 8 7 7 8 7 7 6 5 6 6 6 5 7 6 6 5 3 3 2 4 6 7 10 15 18 19 19 20 21 22 23 24 27
6 6 6 7 7 8 7 7 8 8 7 7 8 8 8 8 7 6 6 7 6 6 6 8 7 7 7 5 5 5 5 7 8 12 17 18 19 19 20 21 22 24 25
6 6 7 7 7 7 7 7 7 7 8 8 7 8 8 8 8 7 7 7 6 8 6 6 7 6 6 6 5 5 6 5 6 8 13 16 17 18 19 19 20 22 24
6 6 7 7 7 7 7 8 8 7 7 7 7 7 8 8 8 8 8 8 8 7 7 7 7 7 7 7 5 5 5 5 5 6 7 10 13 16 17 17 18 19 22
8 6 6 7 7 8 9 7 5 7 6 6 7 7 9 10 11 9 9 7 6 5 6 6 7 7 7 6 5 5 6 5 6 5 5 6 7 7 10 13 15 17 19
6 6 7 8 8 9 3 2 3 6 7 8 8 8 9 11 13 16 16 14 10 9 7 7 7 7 7 6 5 6 5 4 4 4 6 6 6 7 6 9 13 16 17
6 7 7 8 8 8 8 8 9 6 8 9 9 8 11 12 10 7 10 15 15 16 14 10 10 10 9 8 6 7 7 6 5 4 4 6 6 6 4 7 14 16 16
6 6 7 8 8 10 10 11 11 9 9 10 10 10 11 11 12 9 8 8 8 10 12 12 12 12 12 9 7 6 7 8 7 6 5 5 4 4 3 3 10 13 14
6 7 8 8 8 9 10 12 12 8 9 11 11 12 11 11 12 12 8 8 8 8 12 15 15 14 15 13 8 5 6 6 7 6 5 5 3 3 2 2 4 8 11
7 8 8 8 8 8 10 12 13 8 10 10 9 9 13 13 13 11 8 8 9 8 8 9 9 11 13 13 14 10 8 8 7 6 5 5 4 4 3 2 3 5 6
Wind_Direction
357 342 324 301 285 268 238 233 241 250 252 249 246 240 240 244 256 256 200 182 186 190 191 196 201 205 206 204 202 202 200 200 199 197 194 190 186 184 182 180 177 175 172
8 345 308 297 292 282 258 247 245 230 233 233 238 245 245 245 245 247 229 199 197 199 201 203 206 208 210 209 208 206 204 202 202 202 200 196 192 190 188 187 185 183 181
1 341 313 307 345 327 300 255 259 239 236 232 230 239 240 242 243 234 238 231 214 210 210 210 210 211 212 213 211 210 208 206 203 203 203 201 198 195 194 192 191 190 189
8 339 329 353 351 327 306 273 248 259 268 271 254 251 246 236 242 237 232 235 231 224 217 216 215 215 214 214 215 213 211 209 206 204 204 204 203 201 198 196 195 194 194
13 350 331 350 340 326 319 320 20 358 331 328 297 257 244 238 231 236 228 229 228 228 221 216 218 219 218 219 219 218 216 213 210 207 206 205 205 204 202 200 198 198 198
20 351 322 11 351 329 342 356 348 331 311 288 285 291 277 254 238 233 231 228 224 225 225 222 214 222 224 223 222 222 221 218 213 210 209 207 206 205 204 202 201 200 200
9 324 349 346 328 340 352 332 338 324 308 282 279 284 270 256 236 223 222 224 222 220 220 217 211 214 219 224 225 224 222 221 217 213 211 209 207 206 205 204 203 202 202
356 346 28 339 351 343 314 317 325 317 309 309 300 299 300 292 302 252 215 219 231 219 216 217 213 217 223 218 222 225 225 224 221 216 213 210 208 207 206 206 205 204 203
344 360 347 340 345 325 341 347 328 321 311 311 303 299 305 322 339 311 292 181 205 238 246 217 212 217 221 225 226 223 224 224 223 220 216 212 210 208 207 207 207 206 205
267 314 2 351 345 323 324 328 14 338 322 312 313 306 284 301 307 317 321 298 210 204 227 253 236 220 219 222 226 228 226 225 224 223 220 216 212 209 208 208 209 209 208
223 202 137 46 330 305 332 349 327 323 316 315 322 324 319 300 253 260 292 304 287 238 212 217 234 231 221 220 224 230 230 229 225 224 222 219 215 212 210 211 212 212 211
249 147 136 104 303 312 344 328 316 306 308 316 318 313 312 310 308 301 299 305 300 287 244 219 216 227 227 221 226 230 227 229 225 223 222 222 219 215 213 214 215 215 214
322 92 73 58 303 311 297 280 287 287 292 296 299 292 299 306 304 304 306 305 306 304 284 249 218 201 218 206 216 230 227 223 223 223 221 222 220 217 215 216 217 218 217
306 59 218 234 253 265 277 288 294 286 281 288 287 290 290 287 288 291 289 298 303 300 294 277 236 192 167 171 190 224 241 226 221 223 223 222 220 219 218 218 218 218 219
276 308 308 274 258 254 258 267 269 279 286 279 280 287 281 287 286 283 281 273 277 287 291 300 297 206 180 178 182 213 238 234 224 224 226 224 222 221 221 221 219 218 217
286 277 267 270 272 268 260 256 263 267 269 268 263 267 276 277 292 302 299 289 273 270 279 291 296 277 236 230 193 221 243 238 227 225 224 224 222 222 221 221 221 219 217
265 271 268 264 264 263 260 254 254 261 265 266 269 269 265 266 271 285 294 294 290 282 278 286 291 298 270 269 240 236 251 242 230 223 221 222 222 222 221 220 221 221 219
256 263 267 269 269 270 266 262 263 267 268 269 268 269 268 267 259 260 270 278 281 285 285 283 288 291 280 261 247 237 243 246 230 224 220 220 220 220 219 219 220 221 220
262 266 268 269 271 275 276 272 267 266 265 267 269 269 269 268 264 259 261 267 275 279 282 282 283 278 277 268 257 247 246 241 233 227 218 219 220 218 218 218 219 221 220
260 260 263 267 270 274 274 271 267 266 264 265 266 265 266 264 260 256 258 254 260 267 276 279 277 277 275 269 254 241 248 234 227 222 210 212 216 215 216 215 215 218 217
268 265 268 270 270 271 269 274 269 271 281 281 275 271 269 266 261 255 257 254 262 267 274 277 274 274 272 273 266 250 250 242 225 211 203 202 200 204 209 215 214 214 214
261 265 268 271 271 274 251 200 261 290 291 284 280 276 276 270 258 243 239 243 246 254 261 270 278 279 290 306 321 316 297 275 256 219 207 218 201 204 200 201 204 205 206
270 267 266 267 267 268 253 225 228 254 269 270 270 270 273 274 286 271 241 235 241 244 241 249 264 273 283 294 322 326 321 313 288 274 224 233 214 209 187 188 190 193 196
264 266 267 269 269 268 254 232 226 239 260 262 261 259 259 264 271 275 277 261 245 242 237 235 240 250 260 270 281 290 299 299 286 264 225 233 214 197 158 150 182 187 191
262 263 265 261 261 263 246 229 220 246 256 259 258 257 254 253 253 249 250 256 260 259 258 247 232 235 237 245 250 270 280 283 283 275 224 207 195 165 149 151 166 185 191
261 266 264 259 260 263 253 230 213 240 258 262 261 258 256 252 251 231 232 245 255 259 267 278 263 249 247 247 238 234 243 255 264 271 237 196 184 166 167 160 160 171 180
Height
1548 1547 1547 1547 1547 1547 1547 1548 1548 1549 1550 1550 1551 1553 1554 1555 1556 1559 1560 1560 1562 1564 1566 1568 1570 1572 1574 1576 1579 1581 1583 1586 1588 1590 1593 1595 1597 1599 1601 1603 1605 1607 1608
1545 1545 1545 1545 1545 1545 1545 1546 1546 1547 1547 1548 1548 1549 1550 1551 1552 1554 1556 1557 1558 1559 1562 1564 1566 1568 1570 1573 1575 1578 1580 1583 1585 1588 1590 1593 1595 1597 1600 1602 1604 1606 1608
1544 1543 1543 1544 1543 1543 1544 1544 1545 1545 1545 1545 1545 1546 1546 1547 1548 1549 1551 1552 1553 1554 1556 1558 1561 1563 1565 1568 1571 1574 1576 1579 1582 1584 1587 1590 1592 1595 1597 1600 1602 1604 1606
1543 1542 1541 1542 1541 1542 1542 1543 1543 1543 1543 1543 1543 1543 1543 1543 1544 1545 1546 1547 1548 1549 1551 1553 1555 1558 1560 1563 1566 1569 1572 1575 1578 1581 1583 1586 1589 1592 1594 1597 1599 1602 1604
1541 1540 1540 1540 1539 1540 1540 1541 1540 1540 1540 1540 1540 1541 1540 1540 1540 1541 1541 1542 1543 1545 1546 1547 1550 1552 1554 1557 1560 1563 1566 1570 1573 1576 1579 1582 1585 1588 1591 1593 1596 1599 1602
1540 1539 1539 1538 1538 1538 1538 1538 1538 1538 1538 1538 1539 1538 1537 1537 1536 1537 1537 1538 1538 1540 1541 1543 1544 1546 1549 1551 1554 1557 1560 1564 1567 1570 1574 1577 1580 1583 1586 1589 1592 1595 1598
1539 1539 1538 1537 1537 1536 1536 1536 1536 1536 1536 1537 1537 1536 1535 1534 1533 1532 1533 1534 1535 1535 1536 1538 1540 1541 1543 1545 1548 1550 1553 1557 1560 1564 1568 1571 1575 1578 1582 1585 1588 1591 1594
1538 1538 1536 1535 1535 1534 1534 1534 1534 1534 1534 1535 1535 1534 1532 1532 1529 1529 1529 1530 1531 1532 1532 1534 1535 1537 1538 1539 1541 1544 1546 1550 1554 1557 1561 1565 1569 1573 1576 1580 1583 1586 1590
1537 1536 1535 1534 1533 1533 1533 1533 1533 1532 1532 1532 1532 1533 1532 1529 1528 1527 1527 1527 1527 1528 1529 1530 1531 1532 1533 1534 1536 1537 1540 1543 1547 1550 1554 1558 1562 1566 1570 1574 1578 1581 1585
1536 1535 1534 1532 1531 1531 1531 1531 1530 1530 1530 1530 1530 1530 1531 1530 1529 1527 1526 1526 1525 1525 1525 1526 1527 1528 1529 1529 1530 1531 1533 1536 1540 1543 1547 1551 1555 1560 1564 1568 1572 1575 1579
1535 1534 1532 1531 1530 1530 1530 1529 1528 1527 1527 1528 1527 1527 1527 1528 1528 1527 1525 1525 1524 1523 1523 1523 1523 1524 1525 1525 1525 1526 1527 1530 1533 1536 1540 1544 1548 1552 1557 1561 1565 1569 1573
1535 1533 1532 1530 1529 1529 1528 1527 1526 1525 1525 1525 1524 1525 1525 1525 1525 1525 1524 1523 1522 1521 1521 1521 1520 1520 1520 1520 1520 1521 1522 1524 1526 1529 1533 1536 1540 1545 1549 1554 1558 1562 1566
1534 1532 1530 1529 1527 1527 1526 1525 1524 1524 1523 1523 1522 1522 1522 1522 1522 1522 1522 1521 1520 1519 1518 1518 1517 1517 1516 1516 1516 1516 1517 1518 1521 1523 1526 1529 1533 1537 1542 1546 1550 1554 1558
1531 1530 1528 1526 1525 1524 1524 1523 1522 1521 1521 1520 1520 1519 1519 1518 1519 1519 1519 1519 1517 1516 1516 1515 1514 1513 1513 1512 1512 1513 1513 1514 1516 1517 1520 1523 1526 1530 1534 1538 1543 1546 1551
1528 1527 1526 1524 1523 1522 1521 1520 1519 1519 1518 1517 1517 1517 1516 1516 1516 1516 1516 1516 1516 1514 1513 1512 1512 1511 1510 1509 1509 1509 1509 1510 1511 1512 1514 1517 1519 1523 1526 1530 1534 1538 1542
1524 1523 1522 1521 1520 1519 1518 1517 1516 1515 1515 1514 1513 1513 1512 1512 1512 1512 1512 1512 1512 1511 1509 1509 1508 1508 1507 1506 1505 1505 1505 1505 1506 1507 1509 1511 1514 1516 1519 1522 1526 1529 1533
1520 1519 1518 1517 1516 1516 1515 1514 1512 1512 1511 1510 1509 1509 1508 1508 1507 1507 1507 1507 1507 1507 1506 1505 1505 1504 1504 1503 1502 1501 1501 1501 1501 1502 1504 1506 1508 1510 1512 1515 1518 1521 1525
1517 1516 1515 1514 1513 1512 1511 1510 1508 1508 1507 1505 1505 1504 1503 1503 1503 1502 1502 1502 1502 1502 1502 1500 1500 1500 1499 1499 1498 1497 1497 1497 1497 1497 1499 1500 1502 1504 1507 1509 1511 1514 1517
1513 1512 1511 1509 1508 1507 1506 1505 1504 1502 1501 1501 1500 1499 1498 1498 1498 1497 1497 1497 1497 1498 1497 1496 1495 1495 1495 1495 1494 1493 1493 1493 1493 1493 1494 1495 1497 1499 1501 1503 1505 1507 1510
1509 1507 1506 1505 1504 1502 1501 1500 1498 1497 1496 1495 1495 1494 1493 1493 1492 1492 1492 1492 1492 1492 1492 1491 1491 1490 1490 1490 1490 1489 1489 1488 1488 1488 1489 1490 1491 1493 1495 1497 1499 1501 1503
1505 1503 1502 1500 1499 1498 1496 1495 1494 1493 1492 1490 1489 1488 1488 1487 1486 1486 1487 1487 1487 1487 1486 1486 1486 1486 1486 1486 1486 1485 1484 1484 1483 1484 1484 1485 1486 1488 1489 1491 1493 1495 1497
1500 1499 1497 1495 1494 1493 1492 1490 1488 1487 1485 1484 1483 1482 1481 1481 1480 1480 1480 1481 1481 1481 1481 1481 1481 1481 1481 1481 1481 1480 1480 1480 1479 1480 1480 1480 1481 1482 1484 1486 1488 1490 1492
1496 1494 1492 1490 1488 1487 1485 1484 1482 1481 1479 1478 1477 1476 1475 1475 1476 1475 1474 1474 1474 1475 1475 1475 1475 1475 1475 1476 1476 1475 1475 1475 1475 1476 1476 1476 1477 1477 1479 1480 1483 1485 1487
1490 1488 1486 1485 1483 1481 1480 1478 1476 1475 1473 1472 1471 1470 1469 1468 1469 1469 1469 1468 1468 1468 1468 1468 1468 1468 1469 1470 1471 1471 1471 1470 1470 1471 1472 1472 1472 1473 1474 1476 1478 1480 1482
1485 1483 1481 1479 1477 1475 1474 1472 1471 1469 1467 1466 1465 1464 1464 1463 1463 1463 1462 1462 1462 1462 1462 1462 1462 1462 1462 1463 1464 1465 1465 1466 1465 1466 1467 1468 1468 1469 1469 1471 1473 1476 1478
1480 1478 1475 1474 1472 1470 1468 1467 1465 1464 1462 1461 1460 1459 1459 1458 1457 1457 1456 1456 1455 1455 1455 1455 1455 1455 1455 1455 1457 1458 1459 1460 1460 1461 1462 1463 1464 1465 1466 1467 1469 1471 1474